• En España
  • Lista de países
  • Para 7 días
  • Temperatura del agua
  • Mapa Satelital
  • El tiempo en el mapa
  • Informadores
  • user-avatar
    Iniciar sesión

    Tiempo cada hora Odina

    Hoy, 16 Agosto, Jueves

    Tiempo Temperatura Precipitaciones Viento Presión Humedad
    00:00 +12°C° 0 mm 1 mps 747 mmHg 88%
    01:00 +12°C° 0 mm 1 mps 747 mmHg 89%
    02:00 +12°C° 0 mm 1 mps 747 mmHg 90%
    03:00 +11°C° 0 mm 1 mps 747 mmHg 91%
    04:00 +11°C° 0 mm 1 mps 746 mmHg 90%
    05:00 +12°C° 0 mm 1 mps 746 mmHg 87%
    06:00 +13°C° 0 mm 1 mps 746 mmHg 83%
    07:00 +15°C° 0 mm 1 mps 746 mmHg 80%
    08:00 +15°C° 0,8 mm 2 mps 745 mmHg 83%
    09:00 +15°C° 0,8 mm 2 mps 745 mmHg 86%
    10:00 +16°C° 0,8 mm 2 mps 744 mmHg 89%
    11:00 +16°C° 3,2 mm 2 mps 744 mmHg 91%
    12:00 +16°C° 3,2 mm 2 mps 743 mmHg 94%
    13:00 +16°C° 3,2 mm 2 mps 743 mmHg 96%
    14:00 +16°C° 0,5 mm 2 mps 743 mmHg 96%
    15:00 +17°C° 0,5 mm 2 mps 743 mmHg 96%
    16:00 +17°C° 0,5 mm 2 mps 742 mmHg 96%
    17:00 +17°C° 0,4 mm 2 mps 742 mmHg 97%
    18:00 +18°C° 0,4 mm 1 mps 742 mmHg 97%
    19:00 +16°C° 0,4 mm 1 mps 742 mmHg 97%
    20:00 +16°C° 0,1 mm 2 mps 742 mmHg 97%
    21:00 +15°C° 0,1 mm 2 mps 742 mmHg 98%
    22:00 +14°C° 0,1 mm 2 mps 743 mmHg 98%
    23:00 +13°C° 0,1 mm 3 mps 743 mmHg 97%

    Mañana, 17 Agosto, Viernes

    Tiempo Temperatura Precipitaciones Viento Presión Humedad
    00:00 +12°C° 0,1 mm 3 mps 743 mmHg 97%
    01:00 +12°C° 0,1 mm 3 mps 743 mmHg 97%
    02:00 +12°C° 0 mm 3 mps 743 mmHg 97%
    03:00 +11°C° 0 mm 3 mps 744 mmHg 97%
    04:00 +11°C° 0 mm 4 mps 744 mmHg 96%
    05:00 +11°C° 0 mm 4 mps 745 mmHg 95%
    06:00 +11°C° 0 mm 4 mps 745 mmHg 94%
    07:00 +11°C° 0 mm 4 mps 746 mmHg 93%
    08:00 +13°C° 0 mm 4 mps 746 mmHg 82%
    09:00 +14°C° 0 mm 4 mps 746 mmHg 71%
    10:00 +16°C° 0 mm 5 mps 747 mmHg 60%
    11:00 +17°C° 0 mm 5 mps 747 mmHg 56%
    12:00 +17°C° 0 mm 5 mps 747 mmHg 51%
    13:00 +19°C° 0 mm 4 mps 747 mmHg 47%
    14:00 +19°C° 0,1 mm 4 mps 747 mmHg 49%
    15:00 +19°C° 0,1 mm 4 mps 747 mmHg 52%
    16:00 +19°C° 0,1 mm 4 mps 747 mmHg 54%
    17:00 +17°C° 0,1 mm 4 mps 748 mmHg 62%
    18:00 +16°C° 0,1 mm 3 mps 748 mmHg 70%
    19:00 +14°C° 0,1 mm 3 mps 748 mmHg 77%
    20:00 +12°C° 0 mm 3 mps 748 mmHg 83%
    21:00 +12°C° 0 mm 2 mps 749 mmHg 88%
    22:00 +10°C° 0 mm 2 mps 749 mmHg 94%
    23:00 +9°C° 0 mm 2 mps 749 mmHg 95%

    Pasado mañana, 18 Agosto, Sábado

    Tiempo Temperatura Precipitaciones Viento Presión Humedad
    00:00 +9°C° 0 mm 2 mps 749 mmHg 95%
    01:00 +8°C° 0 mm 3 mps 749 mmHg 96%
    02:00 +8°C° 0 mm 2 mps 749 mmHg 97%
    03:00 +8°C° 0 mm 2 mps 749 mmHg 97%
    04:00 +7°C° 0 mm 2 mps 750 mmHg 97%
    05:00 +8°C° 0 mm 3 mps 750 mmHg 95%
    06:00 +8°C° 0 mm 3 mps 750 mmHg 93%
    07:00 +9°C° 0 mm 3 mps 750 mmHg 90%
    08:00 +10°C° 0 mm 3 mps 750 mmHg 84%
    09:00 +11°C° 0 mm 3 mps 750 mmHg 78%
    10:00 +12°C° 0 mm 4 mps 750 mmHg 71%
    11:00 +12°C° 0 mm 4 mps 750 mmHg 67%
    12:00 +13°C° 0 mm 4 mps 750 mmHg 62%
    13:00 +14°C° 0 mm 4 mps 750 mmHg 57%
    14:00 +14°C° 0 mm 4 mps 750 mmHg 58%
    15:00 +14°C° 0 mm 4 mps 750 mmHg 58%
    16:00 +15°C° 0 mm 4 mps 750 mmHg 59%
    17:00 +14°C° 0 mm 3 mps 751 mmHg 63%
    18:00 +13°C° 0 mm 3 mps 751 mmHg 68%
    19:00 +13°C° 0 mm 2 mps 751 mmHg 73%
    20:00 +12°C° 0 mm 2 mps 751 mmHg 78%
    21:00 +9°C° 0 mm 2 mps 751 mmHg 83%
    22:00 +9°C° 0 mm 1 mps 752 mmHg 88%
    23:00 +9°C° 0 mm 1 mps 752 mmHg 89%

    19 Agosto, Domingo

    Tiempo Temperatura Precipitaciones Viento Presión Humedad
    00:00 +8°C° 0 mm 1 mps 752 mmHg 91%
    01:00 +8°C° 0 mm 1 mps 752 mmHg 92%
    02:00 +7°C° 0 mm 1 mps 752 mmHg 93%
    03:00 +7°C° 0 mm 1 mps 752 mmHg 93%
    04:00 +7°C° 0 mm 1 mps 753 mmHg 94%
    05:00 +8°C° 0 mm 1 mps 753 mmHg 89%
    06:00 +9°C° 0 mm 1 mps 753 mmHg 84%
    07:00 +10°C° 0 mm 1 mps 753 mmHg 79%
    08:00 +12°C° 0 mm 2 mps 753 mmHg 71%
    09:00 +14°C° 0 mm 2 mps 753 mmHg 63%
    10:00 +16°C° 0 mm 2 mps 753 mmHg 55%
    11:00 +17°C° 0 mm 2 mps 752 mmHg 52%
    12:00 +17°C° 0 mm 2 mps 752 mmHg 48%
    13:00 +18°C° 0 mm 2 mps 752 mmHg 45%
    14:00 +19°C° 0 mm 2 mps 752 mmHg 44%
    15:00 +19°C° 0 mm 2 mps 752 mmHg 44%
    16:00 +19°C° 0 mm 2 mps 751 mmHg 44%
    17:00 +18°C° 0 mm 1 mps 751 mmHg 51%
    18:00 +16°C° 0 mm 1 mps 751 mmHg 59%
    19:00 +15°C° 0 mm 1 mps 751 mmHg 66%
    20:00 +13°C° 0 mm 1 mps 751 mmHg 69%
    21:00 +11°C° 0 mm 0 mps 751 mmHg 72%
    22:00 +10°C° 0 mm 0 mps 751 mmHg 75%
    23:00 +9°C° 0 mm 0 mps 751 mmHg 76%

    20 Agosto, Lunes

    Tiempo Temperatura Precipitaciones Viento Presión Humedad
    00:00 +9°C° 0 mm 0 mps 751 mmHg 77%
    01:00 +9°C° 0 mm 1 mps 751 mmHg 78%
    02:00 +9°C° 0 mm 1 mps 751 mmHg 80%
    03:00 +9°C° 0 mm 1 mps 751 mmHg 81%
    04:00 +9°C° 0 mm 1 mps 751 mmHg 83%
    05:00 +10°C° 0 mm 1 mps 751 mmHg 79%
    06:00 +11°C° 0 mm 1 mps 751 mmHg 76%
    07:00 +12°C° 0 mm 1 mps 751 mmHg 73%
    08:00 +14°C° 0 mm 1 mps 751 mmHg 66%
    09:00 +16°C° 0 mm 1 mps 751 mmHg 60%
    10:00 +20°C° 0 mm 1 mps 750 mmHg 53%
    11:00 +21°C° 0 mm 1 mps 750 mmHg 50%
    12:00 +22°C° 0 mm 1 mps 750 mmHg 47%
    13:00 +23°C° 0 mm 2 mps 749 mmHg 43%
    14:00 +23°C° 0 mm 2 mps 749 mmHg 44%
    15:00 +23°C° 0 mm 2 mps 749 mmHg 45%
    16:00 +23°C° 0 mm 2 mps 749 mmHg 47%
    17:00 +20°C° 0 mm 2 mps 748 mmHg 55%
    18:00 +19°C° 0 mm 2 mps 748 mmHg 63%
    19:00 +19°C° 0 mm 1 mps 748 mmHg 71%
    20:00 +16°C° 0 mm 2 mps 748 mmHg 73%
    21:00 +15°C° 0 mm 2 mps 748 mmHg 76%
    22:00 +14°C° 0 mm 2 mps 748 mmHg 79%
    23:00 +14°C° 0 mm 2 mps 748 mmHg 80%

    21 Agosto, Martes

    Tiempo Temperatura Precipitaciones Viento Presión Humedad
    00:00 +14°C° 0 mm 2 mps 748 mmHg 80%
    01:00 +14°C° 0 mm 2 mps 747 mmHg 80%
    02:00 +14°C° 0,6 mm 2 mps 747 mmHg 83%
    03:00 +14°C° 0,6 mm 2 mps 747 mmHg 87%
    04:00 +14°C° 0,6 mm 2 mps 747 mmHg 90%
    05:00 +14°C° 1 mm 2 mps 747 mmHg 92%
    06:00 +14°C° 1 mm 2 mps 747 mmHg 93%
    07:00 +14°C° 1 mm 2 mps 747 mmHg 95%
    08:00 +15°C° 0,2 mm 2 mps 747 mmHg 93%
    09:00 +17°C° 0,2 mm 2 mps 747 mmHg 91%
    10:00 +18°C° 0,2 mm 2 mps 747 mmHg 89%
    11:00 +19°C° 0,1 mm 2 mps 747 mmHg 84%
    12:00 +20°C° 0,1 mm 2 mps 747 mmHg 79%
    13:00 +21°C° 0,1 mm 2 mps 747 mmHg 74%
    14:00 +21°C° 0,5 mm 2 mps 747 mmHg 75%
    15:00 +23°C° 0,5 mm 2 mps 746 mmHg 76%
    16:00 +23°C° 0,5 mm 2 mps 746 mmHg 77%
    17:00 +21°C° 0,5 mm 2 mps 746 mmHg 81%
    18:00 +20°C° 0,5 mm 2 mps 746 mmHg 85%
    19:00 +20°C° 0,5 mm 1 mps 746 mmHg 89%
    20:00 +18°C° 0,1 mm 2 mps 746 mmHg 91%
    21:00 +17°C° 0,1 mm 2 mps 746 mmHg 94%
    22:00 +16°C° 0,1 mm 2 mps 746 mmHg 96%
    23:00 +16°C° 0 mm 2 mps 745 mmHg 96%
    Mostrar más